This demonstration page uses our WeatherBlox Daily Observations layout. Learn more.

Left ArrowRight Arrow

44.8408, -93.29828

Hourly Observations for December 27, 2017

Temp ( °F °C ) Dew Point ( °F °C ) Humidity (%) Winds ( mph kmh ) Pressure ( in mb ) Visibility ( mi km ) Precip ( " mm )
12:53 am 00:53 Clear -6 -21.1 -13 -25 71 71 NW 7 11 30.75 1041 10 16 0.00 0.00
1:53 am 01:53 Clear -6 -21.1 -13 -25 71 71 W 7 11 30.76 1042 10 16 0.00 0.00
2:53 am 02:53 Clear -7 -21.7 -13 -25 75 75 WNW 3 6 30.76 1042 10 16 0.00 0.00
3:53 am 03:53 Clear -7 -21.7 -12 -24.4 79 79 WNW 3 6 30.77 1042 10 16 0.00 0.00
4:53 am 04:53 Clear -7 -21.7 -12 -24.4 79 79 Calm 30.76 1042 10 16 0.00 0.00
5:53 am 05:53 Clear -8 -22.2 -11 -23.9 86 86 WSW 5 7 30.78 1042 10 16 0.00 0.00
6:53 am 06:53 Clear -8 -22.2 -12 -24.4 82 82 W 5 7 30.80 1043 10 16 0.00 0.00
7:53 am 07:53 Sunny -8 -22.2 -12 -24.4 82 82 WSW 6 9 30.80 1043 10 16 0.00 0.00
8:53 am 08:53 Sunny -6 -21.1 -10 -23.3 83 83 Calm 30.81 1044 10 16 0.00 0.00
9:53 am 09:53 Sunny -2 -18.9 -11 -23.9 65 65 W 3 6 30.82 1044 10 16 0.00 0.00
10:53 am 10:53 Sunny 0 -17.8 -11 -23.9 59 59 Calm 30.82 1044 10 16 0.00 0.00
11:53 am 11:53 Sunny 1 -17.2 -10 -23.3 59 59 Calm 30.80 1043 10 16 0.00 0.00
12:53 pm 12:53 Sunny 2 -16.7 -10 -23.3 57 57 SSE 5 7 30.77 1042 10 16 0.00 0.00
1:53 pm 13:53 Mostly Sunny 5 -15 -9 -22.8 52 52 WSW 5 7 30.76 1042 10 16 0.00 0.00
2:53 pm 14:53 Mostly Sunny 4 -15.6 -9 -22.8 54 54 VRB 5 7 30.76 1042 10 16 0.00 0.00
3:53 pm 15:53 Mostly Sunny 4 -15.6 -9 -22.8 54 54 SSE 3 6 30.74 1041 10 16 0.00 0.00
4:53 pm 16:53 Mostly Cloudy 4 -15.6 -9 -22.8 54 54 SE 5 7 30.73 1041 10 16 0.00 0.00
5:53 pm 17:53 Mostly Cloudy 4 -15.6 -8 -22.2 57 57 ESE 8 13 30.72 1040 10 16 0.00 0.00
6:53 pm 18:53 Partly Cloudy 2 -16.7 -7 -21.7 65 65 SSE 6 9 30.72 1040 10 16 0.00 0.00
7:53 pm 19:53 Partly Cloudy 2 -16.7 -7 -21.7 65 65 S 8 13 30.72 1040 10 16 0.00 0.00
8:53 pm 20:53 Cloudy 2 -16.7 -7 -21.7 65 65 SE 6 9 30.71 1040 10 16 0.00 0.00
9:53 pm 21:53 Mostly Cloudy 2 -16.7 -8 -22.2 63 63 SE 9 15 30.68 1039 10 16 0.00 0.00
10:53 pm 22:53 Cloudy 2 -16.7 -7 -21.7 65 65 SSE 7 11 30.68 1039 10 16 0.00 0.00
11:53 pm 23:53 Cloudy 3 -16.1 -6 -21.1 66 66 S 9 15 30.68 1039 10 16 0.00 0.00

Powered by AerisWeather